Flag for U.S.A. Weather past 2 weeks in Cheyenne, Wyoming, U.S.A.

Now
69 °F

Broken clouds.


Feels Like: 69 °F
Forecast: 41 / 68 °F
Wind: 17 mph from Northwest

Location: Cheyenne Airport


UV Index: 5 (Moderate)

Visibility: 10 mi


Pressure: 29.88 "Hg

Humidity: 21%

Dew point: 27 °F

Location of CheyenneLocation

Historic Weather in Cheyenne

°F

Cheyenne temperature yesterday

Maximum temperature yesterday: 63 °F (at 4:53 PM)
Minimum temperature yesterday: 42 °F (at 7:53 AM)
Average temperature yesterday: 52 °F

Past Weeks' High & Low Weather Summary

 TemperatureHumidityPressure
High71 °F (Apr 9, 2:53 PM)100% (Apr 17, 7:01 AM)30.43 "Hg (Apr 17, 7:01 AM)
Low12 °F (Apr 14, 5:53 AM)12% (Apr 9, 2:53 PM)29.54 "Hg (Apr 12, 4:53 PM)
Average44 °F52%29.92 "Hg
* Reported Apr 5 2:53 PM — Apr 20 2:53 PM, Cheyenne, Weather by CustomWeather, © 2014

Note: Actual official high and low records may vary slightly from our data, if they occured in-between our weather recording intervals... More about our weather records

Advertising

Historic Weather Conditions — Data for Previous 24 hours

 ConditionsComfort  
Time TempWeatherWind HumidityBarometerVisibility
2:53 PM
Apr 20
67 °FPartly sunny.13 mph19%29.88 "Hg10 mi
1:53 PM68 °FPassing clouds.13 mph17%29.88 "Hg10 mi
12:53 PM67 °FSunny.14 mph20%29.88 "Hg10 mi
11:53 AM65 °FPassing clouds.15 mph23%29.91 "Hg10 mi
10:53 AM65 °FSunny.17 mph28%29.91 "Hg10 mi
9:53 AM62 °FSunny.15 mph34%29.93 "Hg10 mi
8:53 AM59 °FSunny.16 mph41%29.92 "Hg10 mi
7:53 AM53 °FSunny.9 mph52%29.93 "Hg10 mi
6:53 AM44 °FClear.8 mph71%29.91 "Hg10 mi
5:53 AM38 °FClear.8 mph79%29.93 "Hg10 mi
4:53 AM39 °FClear.7 mph79%29.91 "Hg10 mi
3:53 AM42 °FClear.8 mph79%29.91 "Hg10 mi
2:53 AM44 °FClear.9 mph76%29.91 "Hg10 mi
1:53 AM46 °FClear.12 mph77%29.91 "Hg10 mi
12:53 AM48 °FClear.15 mph77%29.93 "Hg10 mi
11:53 PM
Apr 19
49 °FClear.17 mph71%29.92 "Hg10 mi
10:53 PM48 °FClear.12 mph74%29.94 "Hg10 mi
9:53 PM48 °FClear.10 mph74%29.97 "Hg10 mi
8:53 PM50 °FPassing clouds.15 mph71%29.99 "Hg10 mi
7:53 PM52 °FSunny.15 mph66%29.97 "Hg10 mi
6:53 PM59 °FPassing clouds.14 mph46%29.91 "Hg10 mi
5:53 PM60 °FSunny.16 mph41%29.88 "Hg10 mi
4:53 PM63 °FPassing clouds.14 mph37%29.86 "Hg10 mi
Weather by CustomWeather, © 2014

See weather overview